SCP
0 0 0 0 0 0 0 0 0 0 0 0 0 0 0 0 0 0 0 -0 0 -0 -0 -0 -0 -0 -0 -0 0 0 0 0 0 0 0 0 0 0 0 0 0 0 0 0
0 0 0 0 0 0 0 0 0 0 0 0 0 0 0 0 0 0 -0 0 0 0 0 -0 -0 -0 -0 -0 -0 0 0 0 0 0 0 0 0 0 0 0 0 0 0 0
0 0 0 0 0 0 0 0 0 0 0 1 0 0 0 0 -0 0 0 0 0 0 0 -0 -0 -0 -0 -0 -0 0 1 0 0 0 0 0 0 0 0 0 0 0 0 0
0 0 0 0 0 0 0 1 2 1 1 1 0 0 0 0 -0 0 0 0 0 0 0 -0 -0 -0 0 -0 0 -0 0 0 -0 0 0 0 0 0 0 0 0 0 0 0
0 0 0 0 0 0 0 0 1 0 0 0 0 0 0 0 0 0 0 0 0 0 0 0 0 -0 -0 -0 -0 -0 0 0 0 -0 0 0 0 0 0 0 0 0 0 0
0 0 0 0 0 0 0 0 0 0 0 0 0 0 0 0 0 0 0 0 0 0 0 0 0 0 -0 -0 -0 -0 -0 -0 -0 0 0 0 0 0 0 0 0 -0 0 0
0 0 0 0 0 0 0 0 0 0 0 0 0 0 0 0 0 0 0 0 1 0 0 0 0 0 0 0 -0 -0 -0 -0 -0 -0 -0 -0 0 0 0 -0 -0 0 0 0
0 0 0 0 0 0 0 0 0 0 0 0 0 0 0 0 0 0 0 0 1 1 0 0 0 0 0 0 0 0 0 -0 -0 -0 -0 0 -0 0 0 0 0 0 0 0
0 0 0 0 0 0 0 0 0 0 0 0 0 0 0 0 0 0 0 0 0 1 1 0 0 0 0 0 0 0 0 0 0 0 0 0 0 0 0 0 0 0 0 0
0 0 0 0 0 0 -0 0 0 0 0 0 0 0 0 0 0 0 0 0 0 1 1 1 0 0 0 1 1 1 0 0 0 0 0 0 0 0 0 0 0 0 0 0
0 0 0 0 0 0 0 0 0 0 0 0 0 0 0 0 0 0 0 0 0 0 1 2 1 0 1 1 1 1 1 1 1 0 0 0 0 0 0 0 0 0 0 0
0 0 0 0 0 0 0 0 0 0 0 0 0 0 0 0 0 0 0 0 0 0 1 2 1 1 0 1 1 1 1 0 0 0 0 0 0 0 0 0 0 0 0 0
0 0 0 -0 -0 0 0 0 0 0 0 0 0 0 0 0 0 0 0 0 0 0 1 0 0 0 0 0 1 1 0 0 0 0 0 0 0 0 0 0 0 0 0 0
0 0 -0 -0 0 0 0 0 0 0 0 0 0 0 0 0 0 0 0 0 0 0 1 0 0 0 0 0 0 0 0 0 0 0 0 0 0 0 0 0 0 0 0 0
0 -0 -0 0 0 -0 0 0 0 0 -0 -0 0 0 0 0 0 0 0 0 0 0 1 0 0 0 -0 0 0 0 0 0 0 0 0 0 0 0 0 0 0 0 0 0
-0 0 -0 -0 0 0 0 0 0 0 0 0 -0 0 0 0 0 0 0 0 0 0 0 0 0 -0 0 0 0 0 0 0 0 0 0 0 0 0 0 0 0 0 0 0
0 -0 -0 -0 0 0 0 0 0 0 0 0 -0 0 0 0 0 0 0 0 0 0 0 0 0 0 0 0 0 0 0 0 0 0 0 0 0 0 0 0 0 0 0 0
-0 -0 -0 -0 0 0 0 0 0 0 0 -0 0 0 0 0 0 0 0 0 0 0 0 0 0 0 0 0 0 0 0 0 0 0 0 0 0 0 0 0 0 0 0 0
-0 -0 -0 -0 -0 0 -0 0 0 0 0 -0 -0 0 0 0 0 0 0 0 0 0 0 0 0 0 0 0 0 0 0 0 0 0 0 0 0 0 0 0 0 0 0 0
-0 -0 0 -0 -0 -0 0 0 0 0 0 -0 0 0 0 0 0 0 0 0 0 0 0 0 0 0 0 0 0 0 0 0 0 0 0 0 0 0 0 0 0 0 0 0
-0 -0 -0 0 0 0 -0 -0 -0 0 -0 -0 -0 0 0 0 0 0 0 0 0 0 0 0 0 0 0 0 -0 0 0 0 0 0 0 0 0 0 0 0 0 0 0 0
-0 -0 -0 0 0 0 0 0 -0 0 0 -0 -0 0 0 0 0 0 0 0 0 0 0 0 0 0 0 0 0 0 0 0 0 0 0 0 0 0 0 0 0 0 0 0
-0 -0 -0 -0 -0 -0 -0 0 -0 -0 0 0 0 0 0 0 0 0 0 0 0 0 0 0 0 0 0 0 0 -0 0 -0 0 0 0 0 0 0 0 0 0 0 0 0
-0 -0 -0 -0 -0 -0 -0 -0 0 0 0 0 0 0 0 0 0 0 0 0 0 0 0 0 0 0 0 0 0 0 0 -0 0 0 0 0 0 0 0 0 0 0 0 0
-0 -0 -0 -0 0 -0 -0 0 -0 -0 0 0 0 0 0 0 0 0 0 0 0 0 0 0 0 0 0 0 0 0 0 0 0 0 0 0 0 0 0 0 0 0 0 0
0 0 0 0 0 0 0 -0 0 -0 0 0 0 0 0 0 0 0 0 0 0 0 0 0 0 0 0 0 0 0 0 0 0 0 0 0 0 0 0 -0 0 0 0 0
-0 -0 0 0 0 0 0 -0 -0 0 0 0 0 0 0 0 0 0 0 0 0 0 0 0 0 0 0 0 0 0 0 0 0 0 0 0 0 -0 0 -0 0 0 0 0
Wind_Speed_500mb
13 12 8 14 17 15 11 13 10 12 16 18 18 17 41 57 50 39 33 27 26 36 57 64 68 67 68 67 66 63 58 48 49 45 51 52 49 47 45 44 42 41 38 33
13 17 23 24 24 17 22 25 15 14 18 9 29 33 38 43 38 44 48 32 32 30 47 63 66 67 59 63 66 63 58 58 52 46 46 51 46 43 40 39 37 37 36 36
11 8 9 14 20 30 20 14 17 17 15 7 13 21 34 44 54 57 60 40 44 37 44 60 65 66 58 61 48 53 64 58 54 51 46 45 43 40 37 37 35 36 39 38
7 7 7 14 11 15 12 3 3 8 7 12 22 53 58 31 35 46 45 48 50 43 46 53 60 64 67 69 66 64 39 49 68 61 52 42 38 34 35 30 29 27 35 34
3 6 13 16 10 11 11 11 1 8 14 21 42 35 7 27 58 51 43 31 40 40 45 51 59 61 63 70 75 54 52 56 71 67 52 51 37 38 37 26 30 19 31 28
3 5 8 7 9 23 7 9 8 11 12 20 33 10 9 80 64 44 30 25 36 34 33 37 45 53 57 60 63 74 59 55 51 69 60 43 41 38 34 15 30 27 31 26
10 10 12 5 33 20 6 7 24 19 25 24 7 11 50 61 46 36 34 30 21 28 27 29 35 42 50 53 54 51 59 59 71 57 55 43 33 37 34 25 27 29 28 26
1 6 14 21 21 7 14 47 40 45 40 36 41 45 46 54 46 33 29 21 15 26 28 30 29 35 44 46 43 46 41 44 49 48 42 40 36 30 28 27 29 27 26 24
11 9 19 32 30 34 52 51 56 55 55 47 55 51 50 53 54 38 26 23 14 22 28 28 27 30 35 40 45 42 40 40 38 39 38 37 33 30 27 25 25 23 21 19
5 7 24 54 66 48 35 43 57 51 55 54 60 57 58 49 51 42 22 20 15 20 28 29 29 30 30 36 43 39 39 39 39 42 42 35 29 26 23 24 24 19 14 10
13 24 47 52 37 32 53 59 61 55 50 48 54 54 52 46 44 37 16 14 13 11 25 34 34 31 28 31 38 39 37 36 38 39 36 36 32 26 22 21 17 13 14 16
14 36 37 49 73 62 54 56 55 49 48 39 44 49 36 40 38 38 23 11 13 11 17 32 41 37 33 32 33 38 39 38 39 40 39 33 29 28 25 20 17 14 15 18
36 49 47 60 66 60 62 64 41 45 49 46 43 38 36 44 44 40 39 14 9 17 17 26 32 37 25 29 33 36 35 35 37 37 35 35 33 31 24 20 19 19 21 22
23 22 34 47 46 50 41 48 45 40 42 48 49 44 42 39 35 36 34 16 14 15 18 31 40 22 9 23 37 34 36 39 39 36 33 34 30 24 17 13 14 15 15 15
33 42 52 60 66 50 35 36 36 47 59 58 43 36 31 32 38 29 32 24 21 28 16 25 28 30 78 58 45 39 35 37 35 35 35 30 25 22 19 14 11 10 11 13
64 64 57 51 60 50 42 36 32 34 30 33 29 32 25 34 38 25 29 23 30 40 35 38 60 76 70 50 46 42 35 34 34 35 35 32 26 25 20 14 7 5 10 17
67 61 51 48 54 53 47 42 38 37 31 20 28 20 19 30 28 25 24 30 20 37 40 38 56 63 57 67 54 53 47 39 34 33 31 27 22 23 15 7 1 8 13 13
62 66 61 55 66 56 50 44 38 33 25 12 21 18 25 38 29 31 28 29 19 31 38 40 45 61 68 55 58 59 48 41 39 33 28 25 21 19 12 3 4 8 13 15
39 39 40 45 55 54 54 51 38 26 19 12 22 29 36 32 27 26 28 28 31 34 36 45 52 56 69 60 56 57 45 45 45 38 31 26 18 17 11 4 4 12 16 21
43 34 31 36 42 47 51 46 38 30 26 18 25 33 38 27 21 22 24 23 22 36 38 42 42 54 60 62 54 51 47 45 47 43 36 30 22 16 11 6 8 14 21 24
46 40 33 25 28 32 40 40 36 33 29 28 26 29 20 20 21 22 24 23 17 23 30 35 40 43 48 52 58 71 61 43 29 36 36 32 29 19 15 13 15 20 26 27
55 43 33 24 22 26 30 31 32 31 29 31 31 24 17 17 21 21 23 22 14 33 33 28 27 26 24 26 35 44 49 45 25 25 31 30 28 24 21 19 22 26 32 30
52 46 37 25 23 22 23 28 31 34 33 29 27 18 15 16 17 20 24 17 7 11 31 21 16 28 27 6 13 32 61 47 25 27 29 28 25 23 23 20 25 31 33 32
46 35 30 22 8 12 16 12 21 24 27 26 24 20 17 8 10 16 18 11 3 3 24 27 21 23 32 42 19 9 50 48 32 27 24 19 20 13 12 21 29 33 36 34
46 45 31 20 6 4 7 11 14 15 16 16 9 7 8 3 7 14 12 3 12 9 3 10 13 17 20 19 24 17 26 27 27 27 26 15 3 9 18 26 31 32 29 22
49 45 27 18 13 10 11 4 4 8 13 11 9 11 9 7 8 9 9 3 9 7 3 4 12 13 10 12 31 35 43 42 35 26 16 5 12 21 25 25 21 16 18 20
40 39 35 22 20 16 15 12 7 6 9 10 8 7 4 8 8 6 1 14 20 14 7 2 19 20 17 15 24 39 44 35 19 12 13 13 19 16 17 18 17 15 16 20
Wind_Direction_500mb
246 252 268 249 259 237 221 233 198 244 216 256 274 292 298 308 314 292 247 205 213 232 226 215 214 208 214 219 212 210 215 222 226 226 221 221 223 225 229 233 239 239 239 242
274 267 249 253 254 231 235 241 246 252 265 222 297 309 300 317 317 296 271 233 224 230 221 218 218 220 212 218 218 205 209 223 225 230 224 221 219 220 223 230 235 235 238 245
261 315 325 296 239 234 232 198 195 203 225 357 307 311 303 316 319 305 293 259 231 223 226 224 226 224 208 210 205 199 212 225 227 226 221 218 218 221 220 226 232 238 242 252
263 23 234 245 294 278 252 214 331 312 311 309 290 302 302 326 349 332 312 278 241 234 224 227 229 225 208 208 187 194 196 224 233 230 222 208 212 219 230 242 256 260 256 251
212 208 288 305 18 16 35 291 86 307 314 319 326 319 301 7 348 338 315 278 253 251 229 239 233 225 215 212 221 207 215 207 228 230 225 211 212 222 223 244 255 273 268 252
76 224 257 260 323 321 281 282 0 331 315 330 347 2 301 337 340 342 313 283 243 233 232 228 224 222 219 217 213 208 214 185 217 229 227 215 211 217 208 230 224 241 252 241
218 231 279 294 313 318 205 281 328 315 307 317 342 306 325 344 343 350 339 321 247 210 217 224 224 221 220 220 218 219 222 219 219 217 216 214 214 217 224 230 225 232 236 246
79 239 265 6 3 34 305 317 309 312 315 313 314 322 334 347 349 340 0 339 272 214 203 218 226 225 225 220 212 208 221 218 215 212 209 205 203 208 214 210 212 227 234 237
197 239 275 303 278 303 319 305 312 303 304 307 306 313 322 333 348 348 343 356 304 225 207 213 223 222 224 220 211 206 205 198 205 205 199 202 205 202 203 205 208 213 217 219
330 275 277 297 299 291 303 326 327 323 307 299 297 303 309 322 337 344 337 336 343 250 208 205 218 216 208 218 208 211 199 197 195 195 194 200 202 199 198 196 198 203 196 220
256 280 281 283 292 306 300 302 313 315 312 300 298 296 307 311 321 345 343 323 338 286 215 199 204 197 196 202 212 202 198 194 189 187 193 193 192 193 198 194 201 205 233 259
265 265 262 279 293 296 294 293 298 305 314 307 294 295 297 299 305 332 327 335 293 316 216 201 195 187 184 192 203 201 195 193 192 187 183 188 191 193 185 187 203 231 254 265
273 288 294 295 292 288 284 287 287 297 298 298 298 297 302 296 291 309 331 294 307 238 235 186 192 154 179 211 205 198 195 196 195 187 189 191 185 183 185 208 231 254 273 281
278 298 316 308 304 309 283 280 289 280 277 285 291 297 299 289 294 295 306 296 249 217 213 188 178 167 148 242 214 198 205 202 192 189 191 186 179 190 199 220 234 250 262 277
296 278 289 298 299 300 299 291 286 268 269 274 287 285 288 293 296 283 290 280 237 216 213 186 187 243 219 226 208 196 196 194 188 185 181 187 189 199 196 188 208 250 281 294
294 289 293 285 289 286 295 291 293 295 301 273 273 282 273 304 293 267 276 281 224 197 184 171 172 171 186 191 205 195 188 191 188 187 185 183 189 207 197 184 184 264 299 313
291 281 284 278 279 284 286 288 294 307 314 258 267 274 274 313 288 290 283 283 244 198 198 188 193 188 200 193 200 200 187 184 189 193 194 188 195 211 206 177 139 310 309 315
297 289 278 268 270 279 280 280 286 308 322 257 280 259 295 311 282 298 295 276 224 203 200 202 196 199 185 184 203 204 192 182 188 188 191 194 198 213 200 174 343 333 313 308
318 304 290 271 269 271 268 270 275 295 304 244 255 272 295 303 289 309 311 282 233 214 201 206 209 207 199 197 206 203 198 197 194 190 188 189 197 197 205 201 346 344 323 317
340 322 296 281 266 261 258 255 269 277 281 262 283 280 295 298 286 318 327 302 273 232 207 212 215 219 215 211 212 215 205 201 203 199 196 197 203 210 222 249 309 318 324 317
339 332 321 296 275 260 250 253 267 272 270 260 253 282 305 308 301 310 326 323 272 228 208 214 228 234 237 244 240 234 220 200 206 216 210 210 214 224 241 255 293 312 319 312
345 341 319 298 274 262 249 254 261 268 271 276 276 291 283 304 302 305 313 310 276 236 231 260 247 227 218 241 238 236 222 220 238 234 216 210 222 232 246 263 287 303 309 300
350 341 333 310 267 256 250 251 258 262 263 274 275 271 279 276 298 309 318 327 279 240 218 224 232 216 211 231 316 232 210 229 254 228 219 226 221 231 254 271 286 300 297 293
7 6 358 350 268 239 256 257 257 254 257 268 260 249 241 235 308 328 333 331 350 245 221 222 227 261 240 245 281 151 189 212 192 179 174 203 224 231 272 292 298 296 287 285
17 17 16 18 27 259 262 283 261 240 241 237 206 180 173 219 285 296 321 260 227 235 240 224 241 251 242 228 200 185 170 180 168 154 150 153 124 335 319 309 300 290 285 280
4 10 21 33 32 30 17 351 245 222 213 220 220 205 215 272 255 278 323 161 169 185 237 236 159 159 186 190 178 170 146 142 143 143 133 28 343 342 343 334 322 307 295 292
14 21 34 58 59 46 30 21 16 224 189 195 191 228 250 237 236 279 94 138 120 93 48 79 164 156 169 142 146 165 162 157 150 106 77 39 358 356 4 1 347 329 314 298
Wind_Speed_850mb
13 12 8 14 17 15 11 13 10 12 16 18 18 17 41 57 50 39 33 27 26 36 57 64 68 67 68 67 66 63 58 48 49 45 51 52 49 47 45 44 42 41 38 33
13 17 23 24 24 17 22 25 15 14 18 9 29 33 38 43 38 44 48 32 32 30 47 63 66 67 59 63 66 63 58 58 52 46 46 51 46 43 40 39 37 37 36 36
11 8 9 14 20 30 20 14 17 17 15 7 13 21 34 44 54 57 60 40 44 37 44 60 65 66 58 61 48 53 64 58 54 51 46 45 43 40 37 37 35 36 39 38
7 7 7 14 11 15 12 3 3 8 7 12 22 53 58 31 35 46 45 48 50 43 46 53 60 64 67 69 66 64 39 49 68 61 52 42 38 34 35 30 29 27 35 34
3 6 13 16 10 11 11 11 1 8 14 21 42 35 7 27 58 51 43 31 40 40 45 51 59 61 63 70 75 54 52 56 71 67 52 51 37 38 37 26 30 19 31 28
3 5 8 7 9 23 7 9 8 11 12 20 33 10 9 80 64 44 30 25 36 34 33 37 45 53 57 60 63 74 59 55 51 69 60 43 41 38 34 15 30 27 31 26
10 10 12 5 33 20 6 7 24 19 25 24 7 11 50 61 46 36 34 30 21 28 27 29 35 42 50 53 54 51 59 59 71 57 55 43 33 37 34 25 27 29 28 26
1 6 14 21 21 7 14 47 40 45 40 36 41 45 46 54 46 33 29 21 15 26 28 30 29 35 44 46 43 46 41 44 49 48 42 40 36 30 28 27 29 27 26 24
11 9 19 32 30 34 52 51 56 55 55 47 55 51 50 53 54 38 26 23 14 22 28 28 27 30 35 40 45 42 40 40 38 39 38 37 33 30 27 25 25 23 21 19
5 7 24 54 66 48 35 43 57 51 55 54 60 57 58 49 51 42 22 20 15 20 28 29 29 30 30 36 43 39 39 39 39 42 42 35 29 26 23 24 24 19 14 10
13 24 47 52 37 32 53 59 61 55 50 48 54 54 52 46 44 37 16 14 13 11 25 34 34 31 28 31 38 39 37 36 38 39 36 36 32 26 22 21 17 13 14 16
14 36 37 49 73 62 54 56 55 49 48 39 44 49 36 40 38 38 23 11 13 11 17 32 41 37 33 32 33 38 39 38 39 40 39 33 29 28 25 20 17 14 15 18
36 49 47 60 66 60 62 64 41 45 49 46 43 38 36 44 44 40 39 14 9 17 17 26 32 37 25 29 33 36 35 35 37 37 35 35 33 31 24 20 19 19 21 22
23 22 34 47 46 50 41 48 45 40 42 48 49 44 42 39 35 36 34 16 14 15 18 31 40 22 9 23 37 34 36 39 39 36 33 34 30 24 17 13 14 15 15 15
33 42 52 60 66 50 35 36 36 47 59 58 43 36 31 32 38 29 32 24 21 28 16 25 28 30 78 58 45 39 35 37 35 35 35 30 25 22 19 14 11 10 11 13
64 64 57 51 60 50 42 36 32 34 30 33 29 32 25 34 38 25 29 23 30 40 35 38 60 76 70 50 46 42 35 34 34 35 35 32 26 25 20 14 7 5 10 17
67 61 51 48 54 53 47 42 38 37 31 20 28 20 19 30 28 25 24 30 20 37 40 38 56 63 57 67 54 53 47 39 34 33 31 27 22 23 15 7 1 8 13 13
62 66 61 55 66 56 50 44 38 33 25 12 21 18 25 38 29 31 28 29 19 31 38 40 45 61 68 55 58 59 48 41 39 33 28 25 21 19 12 3 4 8 13 15
39 39 40 45 55 54 54 51 38 26 19 12 22 29 36 32 27 26 28 28 31 34 36 45 52 56 69 60 56 57 45 45 45 38 31 26 18 17 11 4 4 12 16 21
43 34 31 36 42 47 51 46 38 30 26 18 25 33 38 27 21 22 24 23 22 36 38 42 42 54 60 62 54 51 47 45 47 43 36 30 22 16 11 6 8 14 21 24
46 40 33 25 28 32 40 40 36 33 29 28 26 29 20 20 21 22 24 23 17 23 30 35 40 43 48 52 58 71 61 43 29 36 36 32 29 19 15 13 15 20 26 27
55 43 33 24 22 26 30 31 32 31 29 31 31 24 17 17 21 21 23 22 14 33 33 28 27 26 24 26 35 44 49 45 25 25 31 30 28 24 21 19 22 26 32 30
52 46 37 25 23 22 23 28 31 34 33 29 27 18 15 16 17 20 24 17 7 11 31 21 16 28 27 6 13 32 61 47 25 27 29 28 25 23 23 20 25 31 33 32
46 35 30 22 8 12 16 12 21 24 27 26 24 20 17 8 10 16 18 11 3 3 24 27 21 23 32 42 19 9 50 48 32 27 24 19 20 13 12 21 29 33 36 34
46 45 31 20 6 4 7 11 14 15 16 16 9 7 8 3 7 14 12 3 12 9 3 10 13 17 20 19 24 17 26 27 27 27 26 15 3 9 18 26 31 32 29 22
49 45 27 18 13 10 11 4 4 8 13 11 9 11 9 7 8 9 9 3 9 7 3 4 12 13 10 12 31 35 43 42 35 26 16 5 12 21 25 25 21 16 18 20
40 39 35 22 20 16 15 12 7 6 9 10 8 7 4 8 8 6 1 14 20 14 7 2 19 20 17 15 24 39 44 35 19 12 13 13 19 16 17 18 17 15 16 20
Wind_Direction_850mb
246 252 268 249 259 237 221 233 198 244 216 256 274 292 298 308 314 292 247 205 213 232 226 215 214 208 214 219 212 210 215 222 226 226 221 221 223 225 229 233 239 239 239 242
274 267 249 253 254 231 235 241 246 252 265 222 297 309 300 317 317 296 271 233 224 230 221 218 218 220 212 218 218 205 209 223 225 230 224 221 219 220 223 230 235 235 238 245
261 315 325 296 239 234 232 198 195 203 225 357 307 311 303 316 319 305 293 259 231 223 226 224 226 224 208 210 205 199 212 225 227 226 221 218 218 221 220 226 232 238 242 252
263 23 234 245 294 278 252 214 331 312 311 309 290 302 302 326 349 332 312 278 241 234 224 227 229 225 208 208 187 194 196 224 233 230 222 208 212 219 230 242 256 260 256 251
212 208 288 305 18 16 35 291 86 307 314 319 326 319 301 7 348 338 315 278 253 251 229 239 233 225 215 212 221 207 215 207 228 230 225 211 212 222 223 244 255 273 268 252
76 224 257 260 323 321 281 282 0 331 315 330 347 2 301 337 340 342 313 283 243 233 232 228 224 222 219 217 213 208 214 185 217 229 227 215 211 217 208 230 224 241 252 241
218 231 279 294 313 318 205 281 328 315 307 317 342 306 325 344 343 350 339 321 247 210 217 224 224 221 220 220 218 219 222 219 219 217 216 214 214 217 224 230 225 232 236 246
79 239 265 6 3 34 305 317 309 312 315 313 314 322 334 347 349 340 0 339 272 214 203 218 226 225 225 220 212 208 221 218 215 212 209 205 203 208 214 210 212 227 234 237
197 239 275 303 278 303 319 305 312 303 304 307 306 313 322 333 348 348 343 356 304 225 207 213 223 222 224 220 211 206 205 198 205 205 199 202 205 202 203 205 208 213 217 219
330 275 277 297 299 291 303 326 327 323 307 299 297 303 309 322 337 344 337 336 343 250 208 205 218 216 208 218 208 211 199 197 195 195 194 200 202 199 198 196 198 203 196 220
256 280 281 283 292 306 300 302 313 315 312 300 298 296 307 311 321 345 343 323 338 286 215 199 204 197 196 202 212 202 198 194 189 187 193 193 192 193 198 194 201 205 233 259
265 265 262 279 293 296 294 293 298 305 314 307 294 295 297 299 305 332 327 335 293 316 216 201 195 187 184 192 203 201 195 193 192 187 183 188 191 193 185 187 203 231 254 265
273 288 294 295 292 288 284 287 287 297 298 298 298 297 302 296 291 309 331 294 307 238 235 186 192 154 179 211 205 198 195 196 195 187 189 191 185 183 185 208 231 254 273 281
278 298 316 308 304 309 283 280 289 280 277 285 291 297 299 289 294 295 306 296 249 217 213 188 178 167 148 242 214 198 205 202 192 189 191 186 179 190 199 220 234 250 262 277
296 278 289 298 299 300 299 291 286 268 269 274 287 285 288 293 296 283 290 280 237 216 213 186 187 243 219 226 208 196 196 194 188 185 181 187 189 199 196 188 208 250 281 294
294 289 293 285 289 286 295 291 293 295 301 273 273 282 273 304 293 267 276 281 224 197 184 171 172 171 186 191 205 195 188 191 188 187 185 183 189 207 197 184 184 264 299 313
291 281 284 278 279 284 286 288 294 307 314 258 267 274 274 313 288 290 283 283 244 198 198 188 193 188 200 193 200 200 187 184 189 193 194 188 195 211 206 177 139 310 309 315
297 289 278 268 270 279 280 280 286 308 322 257 280 259 295 311 282 298 295 276 224 203 200 202 196 199 185 184 203 204 192 182 188 188 191 194 198 213 200 174 343 333 313 308
318 304 290 271 269 271 268 270 275 295 304 244 255 272 295 303 289 309 311 282 233 214 201 206 209 207 199 197 206 203 198 197 194 190 188 189 197 197 205 201 346 344 323 317
340 322 296 281 266 261 258 255 269 277 281 262 283 280 295 298 286 318 327 302 273 232 207 212 215 219 215 211 212 215 205 201 203 199 196 197 203 210 222 249 309 318 324 317
339 332 321 296 275 260 250 253 267 272 270 260 253 282 305 308 301 310 326 323 272 228 208 214 228 234 237 244 240 234 220 200 206 216 210 210 214 224 241 255 293 312 319 312
345 341 319 298 274 262 249 254 261 268 271 276 276 291 283 304 302 305 313 310 276 236 231 260 247 227 218 241 238 236 222 220 238 234 216 210 222 232 246 263 287 303 309 300
350 341 333 310 267 256 250 251 258 262 263 274 275 271 279 276 298 309 318 327 279 240 218 224 232 216 211 231 316 232 210 229 254 228 219 226 221 231 254 271 286 300 297 293
7 6 358 350 268 239 256 257 257 254 257 268 260 249 241 235 308 328 333 331 350 245 221 222 227 261 240 245 281 151 189 212 192 179 174 203 224 231 272 292 298 296 287 285
17 17 16 18 27 259 262 283 261 240 241 237 206 180 173 219 285 296 321 260 227 235 240 224 241 251 242 228 200 185 170 180 168 154 150 153 124 335 319 309 300 290 285 280
4 10 21 33 32 30 17 351 245 222 213 220 220 205 215 272 255 278 323 161 169 185 237 236 159 159 186 190 178 170 146 142 143 143 133 28 343 342 343 334 322 307 295 292
14 21 34 58 59 46 30 21 16 224 189 195 191 228 250 237 236 279 94 138 120 93 48 79 164 156 169 142 146 165 162 157 150 106 77 39 358 356 4 1 347 329 314 298